Lincoln Laboratory Near-Earth Asteroid Research project
軌道要素
Epoch = 2003 July 20.0 TT
T = 2003 July 2.0832 TT Peri. = 119.3826
e = 0.508747 Node = 245.7524 2000.0
q = 1.831682 AU Incl. = 16.3306
a = 3.728591 AU n = 0.1368948 P = 7.20 years
星図
光度変化
m1 = 15.0 + 5 logΔ + 10.0 log r
軌道要素は、IAUC 9149に掲載されたものです。
星図は StellaNavigator Ver.2.0 for Windows (アストロアーツ編著 / アスキー出版局刊) で作成したものです。
光度グラフはComet for Windowsで作成したものです。
Copyright(C) Seiichi Yoshida (comet@aerith.net). All rights reserved.